Retour au catalogue

FENGYUN 1C DEB

ActifSSO
NORAD 31464·DEBRIS·🇨🇳 China

Lancé May 10, 1999 depuis Taiyuan Satellite Launch Center

Loading…

Prochains Passages (prochaines 24 heures)

TLE

FraisSource: Space-Track

Époque: Sep 14, 2026, 08:51 UTC

1 31464U 99025BVC 26257.36876308  .00000293  00000-0  17958-3 0  9993
2 31464  98.7602 303.5644 0044020 178.5845 244.2695 14.12733548985715

Suivez FENGYUN 1C DEB en temps réel avec AllMySat

Download on the App Store